DW4098 Weather Reports


time (UTC)temp
F
wind
direction
speed
knots
gust
knots
rain 1hr
in
rain 24hr
in
rain mn
in
humidity
%
barometer
mb
20260510142131 32 315 22.6 20.9 0.00 0.00 0.00 1 1034.5
20260510141153 59 0 0.0 0.0 0.00 0.00 0.00 85 1031.7
20260510140133 32 315 22.6 20.9 0.00 0.00 0.00 1 1034.5
20260510135131 32 315 22.6 20.9 0.00 0.00 0.00 1 1034.5
20260510134131 60 0 0.0 0.0 0.00 0.00 0.00 83 1031.6
20260510133131 60 0 0.0 0.0 0.00 0.00 0.00 83 1031.5
20260510132131 60 0 0.0 0.0 0.00 0.00 0.00 84 1031.6
20260510131131 60 0 0.0 0.0 0.00 0.00 0.00 84 1031.6
20260510130131 60 0 0.0 0.0 0.00 0.00 0.00 83 1031.8
20260510125131 32 315 22.6 20.9 0.00 0.00 0.00 1 1034.5
20260510124152 61 0 0.0 0.0 0.00 0.00 0.00 82 1031.8
20260510123152 32 315 22.6 20.9 0.00 0.00 0.00 1 1034.5
20260510122131 32 315 22.6 20.9 0.00 0.00 0.00 1 1033.5
20260510121131 32 315 22.6 20.9 0.00 0.00 0.00 1 1034.5
20260510120131 60 0 0.0 0.0 0.00 0.00 0.00 84 1032.0
20260510115131 32 315 22.6 20.9 0.00 0.00 0.00 1 1034.5
20260510114132 59 0 0.0 0.0 0.00 0.00 0.00 84 1032.1
20260510113131 32 315 22.6 20.9 0.00 0.00 0.00 1 1033.5
20260510112142 32 315 22.6 20.9 0.00 0.00 0.00 1 1034.5
20260510112140 59 0 0.0 0.0 0.00 0.00 0.00 82 1032.0
20260510111131 60 0 0.0 0.0 0.00 0.00 0.00 82 1032.0
20260510110131 32 315 22.6 20.9 0.00 0.00 0.00 1 1034.5
20260510105131 60 347 0.9 1.7 0.00 0.00 0.00 82 1031.8
20260510104131 60 337 0.9 2.6 0.00 0.00 0.00 82 1031.7
20260510103152 60 308 0.0 1.7 0.00 0.00 0.00 81 1031.6
20260510102131 61 0 0.0 0.0 0.00 0.00 0.00 79 1031.6
20260510101131 61 0 0.0 0.0 0.00 0.00 0.00 79 1031.5
20260510100132 61 0 0.0 0.0 0.00 0.00 0.00 78 1031.4
20260510095131 32 315 22.6 20.9 0.00 0.00 0.00 1 1033.5
20260510094152 62 128 0.0 1.7 0.00 0.00 0.00 77 1031.1
20260510093132 62 118 0.0 0.9 0.00 0.00 0.00 76 1031.0
20260510092130 32 315 22.6 20.9 0.00 0.00 0.00 1 1033.5
20260510091131 32 315 22.6 20.9 0.00 0.00 0.00 1 1033.5
20260510090131 32 315 22.6 20.9 0.00 0.00 0.00 1 1033.5
20260510085130 32 315 22.6 20.9 0.00 0.00 0.00 1 1033.5
20260510084131 64 137 0.9 2.6 0.00 0.00 0.00 73 1030.3
20260510083130 64 145 1.7 5.2 0.00 0.00 0.00 72 1030.0
20260510082131 32 315 22.6 20.9 0.00 0.00 0.00 1 1032.5
20260510081130 32 315 22.6 20.9 0.00 0.00 0.00 1 1032.5
20260510080131 66 147 2.6 7.0 0.00 0.00 0.00 69 1029.5
20260510075131 32 315 22.6 20.9 0.00 0.00 0.00 1 1032.5
20260510074131 67 149 4.3 9.6 0.00 0.00 0.00 67 1029.3
20260510073131 32 315 22.6 20.9 0.00 0.00 0.00 1 1032.5
20260510072130 68 150 4.3 10.4 0.00 0.00 0.00 66 1029.1
20260510071131 32 315 22.6 20.9 0.00 0.00 0.00 1 1032.5
20260510070151 32 315 22.6 20.9 0.00 0.00 0.00 1 1032.5
20260510065151 32 315 22.6 20.9 0.00 0.00 0.00 1 1032.5
20260510064131 71 136 5.2 10.4 0.00 0.00 0.00 60 1028.8
20260510063130 72 136 5.2 10.4 0.00 0.00 0.00 58 1028.6
20260510062130 32 315 22.6 20.9 0.00 0.00 0.00 1 1032.5
20260510061130 32 315 22.6 20.9 0.00 0.00 0.00 1 1031.5
20260510060151 32 315 22.6 20.9 0.00 0.00 0.00 1 1031.5
20260510055130 74 124 6.1 10.4 0.00 0.00 0.00 50 1028.2
20260510054131 32 315 22.6 20.9 0.00 0.00 0.00 1 1031.5
20260510053131 32 315 22.6 20.9 0.00 0.00 0.00 1 1031.5
20260510052131 32 315 22.6 20.9 0.00 0.00 0.00 1 1031.5
20260510051131 32 315 22.6 20.9 0.00 0.00 0.00 1 1031.5
20260510050130 75 134 5.2 10.4 0.00 0.00 0.00 50 1027.7
20260510045130 76 154 5.2 10.4 0.00 0.00 0.00 50 1027.7
20260510044151 32 315 22.6 20.9 0.00 0.00 0.00 1 1030.5
20260510043151 32 315 22.6 20.9 0.00 0.00 0.00 1 1030.5
20260510042130 32 315 22.6 20.9 0.00 0.00 0.00 1 1030.5
20260510041130 32 315 22.6 20.9 0.00 0.00 0.00 1 1030.5
20260510040131 76 139 5.2 10.4 0.00 0.00 0.00 46 1027.7
20260510035130 32 315 22.6 20.9 0.00 0.00 0.00 1 1031.5
20260510034130 32 315 22.6 20.9 0.00 0.00 0.00 1 1030.5
20260510033130 75 132 4.3 8.7 0.00 0.00 0.00 48 1027.7
20260510032130 75 145 4.3 7.8 0.00 0.00 0.00 48 1027.8
20260510031130 32 315 22.6 20.9 0.00 0.00 0.00 1 1031.5
20260510030131 32 315 22.6 20.9 0.00 0.00 0.00 1 1031.5
20260510025130 74 142 2.6 7.8 0.00 0.00 0.00 48 1028.1
20260510024130 32 315 22.6 20.9 0.00 0.00 0.00 1 1032.5
20260510023151 74 155 3.5 7.0 0.00 0.00 0.00 48 1028.5
20260510022130 32 315 22.6 20.9 0.00 0.00 0.00 1 1032.5
20260510021130 73 139 3.5 7.8 0.00 0.00 0.00 50 1028.9
20260510020131 32 315 22.6 20.9 0.00 0.00 0.00 1 1032.5
20260510015130 32 315 22.6 20.9 0.00 0.00 0.00 1 1032.5
20260510014129 32 315 22.6 20.9 0.00 0.00 0.00 1 1032.5
20260510013130 32 315 22.6 20.9 0.00 0.00 0.00 1 1032.5
20260510012130 70 122 2.6 6.1 0.00 0.00 0.00 60 1029.5
20260510011129 68 96 1.7 5.2 0.00 0.00 0.00 62 1029.6
20260510010131 68 61 0.9 2.6 0.00 0.00 0.00 62 1029.7
20260510005151 67 288 0.9 1.7 0.00 0.00 0.00 63 1029.8
20260510004150 32 315 22.6 20.9 0.00 0.00 0.00 1 1033.5
20260510003130 32 315 22.6 20.9 0.00 0.00 0.00 1 1033.5
20260510002130 32 315 22.6 20.9 0.00 0.00 0.00 1 1033.5
20260510001130 32 315 22.6 20.9 0.00 0.00 0.00 1 1033.5
20260510000151 32 315 22.6 20.9 0.00 0.00 0.00 1 1033.5
20260509235150 63 263 0.9 2.6 0.00 0.00 0.00 67 1030.1
20260509234129 62 311 1.7 3.5 0.00 0.00 0.00 70 1030.1
20260509233129 61 340 0.9 2.6 0.00 0.00 0.00 70 1029.9
20260509232129 32 315 22.6 20.9 0.00 0.00 0.00 1 1032.5
20260509231150 60 314 1.7 3.5 0.00 0.00 0.00 72 1029.9
20260509230130 32 315 22.6 20.9 0.00 0.00 0.00 1 1032.5
20260509225151 58 306 3.5 5.2 0.00 0.00 0.00 75 1030.0
20260509224130 32 315 22.6 20.9 0.00 0.00 0.00 1 1032.5
20260509223130 56 319 0.9 2.6 0.00 0.00 0.00 78 1030.0
20260509222130 55 312 2.6 4.3 0.00 0.00 0.00 79 1029.8
20260509221129 54 304 1.7 3.5 0.00 0.00 0.00 80 1029.7
20260509220130 54 0 0.0 0.0 0.00 0.00 0.00 82 1029.5
20260509215129 32 315 22.6 20.9 0.00 0.00 0.00 1 1032.5
20260509214129 50 0 0.0 0.0 0.00 0.00 0.00 87 1029.5
20260509213130 32 315 22.6 20.9 0.00 0.00 0.00 1 1031.5
20260509212129 46 0 0.0 0.0 0.00 0.00 0.00 88 1029.3
20260509211129 46 0 0.0 0.0 0.00 0.00 0.00 88 1029.3
20260509210130 45 0 0.0 0.0 0.00 0.00 0.00 89 1029.1
20260509205129 32 315 22.6 20.9 0.00 0.00 0.00 1 1030.5
20260509204130 45 0 0.0 0.0 0.00 0.00 0.00 90 1029.1
20260509203129 32 315 22.6 20.9 0.00 0.00 0.00 1 1030.5
20260509202129 45 0 0.0 0.0 0.00 0.00 0.00 89 1028.9
20260509201129 32 315 22.6 20.9 0.00 0.00 0.00 1 1029.5
20260509200129 45 0 0.0 0.0 0.00 0.00 0.00 89 1028.7
20260509195150 45 0 0.0 0.0 0.00 0.00 0.00 89 1028.5
20260509194129 32 315 22.6 20.9 0.00 0.00 0.00 1 1030.5
20260509193128 45 0 0.0 0.0 0.00 0.00 0.00 89 1028.2
20260509192150 45 0 0.0 0.0 0.00 0.00 0.00 88 1028.0
20260509192129 32 315 22.6 20.9 0.00 0.00 0.00 1 1030.5
20260509191129 46 0 0.0 0.0 0.00 0.00 0.00 88 1027.9
20260509190129 46 0 0.0 0.0 0.00 0.00 0.00 88 1027.8
20260509185149 46 0 0.0 0.0 0.00 0.00 0.00 88 1027.7
20260509184150 32 315 22.6 20.9 0.00 0.00 0.00 1 1029.5
20260509183129 32 315 22.6 20.9 0.00 0.00 0.00 1 1029.5
20260509182129 46 0 0.0 0.0 0.00 0.00 0.00 88 1027.4
20260509181129 32 315 22.6 20.9 0.00 0.00 0.00 1 1029.5
20260509180151 32 315 22.6 20.9 0.00 0.00 0.00 1 1029.5
20260509175129 32 315 22.6 20.9 0.00 0.00 0.00 1 1029.5
20260509174150 47 0 0.0 0.0 0.00 0.00 0.00 88 1027.3
20260509173129 32 315 22.6 20.9 0.00 0.00 0.00 1 1029.5
20260509172129 32 315 22.6 20.9 0.00 0.00 0.00 1 1029.5
20260509171129 47 0 0.0 0.0 0.00 0.00 0.00 88 1027.1
20260509170130 47 0 0.0 0.0 0.00 0.00 0.00 87 1027.0
20260509165129 47 0 0.0 0.0 0.00 0.00 0.00 87 1027.0
20260509164150 48 0 0.0 0.0 0.00 0.00 0.00 87 1027.1
20260509163128 48 0 0.0 0.0 0.00 0.00 0.00 87 1027.1
20260509162129 32 315 22.6 20.9 0.00 0.00 0.00 1 1029.5
20260509161128 48 0 0.0 0.0 0.00 0.00 0.00 87 1027.2
20260509160129 32 315 22.6 20.9 0.00 0.00 0.00 1 1029.5
20260509155129 32 315 22.6 20.9 0.00 0.00 0.00 1 1029.5
20260509154129 32 315 22.6 20.9 0.00 0.00 0.00 1 1029.5
20260509153150 32 315 22.6 20.9 0.00 0.00 0.00 1 1029.5
20260509152129 50 0 0.0 0.0 0.00 0.00 0.00 86 1027.1
20260509151149 50 0 0.0 0.0 0.00 0.00 0.00 86 1027.1
20260509150129 32 315 22.6 20.9 0.00 0.00 0.00 1 1029.5
20260509145130 50 0 0.0 0.0 0.00 0.00 0.00 86 1027.0
20260509144129 32 315 22.6 20.9 0.00 0.00 0.00 1 1029.5
20260509143129 32 315 22.6 20.9 0.00 0.00 0.00 1 1029.5